Regional Weather Roundup
Issued by NWS

Home | Current Version | Previous Version | Graphics & Text | Print | Product List | Glossary On
Versions: 1 2 3 4 5 6 7 8 9 10 11 12 13 14 15 16 17 18 19 20 21 22 23 24 25 26 27 28 29 30 31 32 33 34 35 36 37 38 39 40 41 42 43 44 45 46 47 48 49 50
000
ASUS45 KBOU 271407
RWRCO

WEATHER ROUNDUP FOR COLORADO
NATIONAL WEATHER SERVICE DENVER/BOULDER CO
700 AM MST THU NOV 27 2014

NOTE: "FAIR" INDICATES FEW OR NO CLOUDS BELOW 12000 FEET WITH NO
SIGNIFICANT WEATHER AND/OR OBSTRUCTIONS TO VISIBILITY.

COZ001>005-013-030-031-271500-
...NORTHWEST COLORADO...

CITY           SKY/WX    TMP DP  RH WIND       PRES   REMARKS
CRAIG          CLOUDY    24  21  88 CALM      30.40S
HAYDEN         CLOUDY    27  19  74 E14       30.40F WCI  15
MEEKER         MOCLDY    25  21  85 E3        30.43F
MOUNT WERNER   NOT AVBL
STEAMBOAT SPGS CLOUDY    20  18  93 CALM      30.43R
WALDEN         MOCLDY    32  18  55 CALM      30.36S
$$

COZ006>008-011-271500-
...WEST CENTRAL VALLEYS...

CITY           SKY/WX    TMP DP  RH WIND       PRES   REMARKS
GRAND JUNCTION PTCLDY    25  22  88 CALM      30.47R
MONTROSE       PTCLDY    23  19  85 SE8       30.51S WCI  14
EAGLE          PTCLDY    21  19  93 CALM      30.51F
RIFLE          PTCLDY    22  19  89 CALM      30.51S
DELTA          PTCLDY    26  22  86 NE3       30.51R
NUCLA          PTCLDY    27  21  80 CALM      30.53S
$$

COZ017>023-064>068-271500-
...SOUTHWEST COLORADO...

CITY           SKY/WX    TMP DP  RH WIND       PRES   REMARKS
DURANGO        PTCLDY    21  18  88 NE8       30.49R WCI  11
CORTEZ         CLEAR     18  14  84 CALM      30.49R
PAGOSA SPRINGS PTCLDY    21  17  83 CALM      30.50R
TELLURIDE      PTCLDY    26  17  67 E7        30.57R WCI  19
WOLF CREEK PAS CLEAR     30  -6  21 MISG      30.60R
$$

COZ009-010-012-014-032>034-037-058>063-271500-
...CENTRAL COLORADO...

CITY           SKY/WX    TMP DP  RH WIND       PRES   REMARKS
ASPEN          PTCLDY    16  13  88 CALM      30.49R
BUENA VISTA    PTCLDY    20  15  82 CALM      30.45R
COPPER MTN     NOT AVBL
BERTHOUD PASS  NOT AVBL
COTTONWOOD PAS PTCLDY    34  18  51 CALM      30.46S
GUNNISON       PTCLDY    12   7  79 CALM      30.59R
KREMMLING      PTCLDY    25  19  80 E8        30.45S WCI  16
LEADVILLE      CLEAR     28   7  41 MISG      30.46F
MONARCH PASS     N/A     19  18  93 MISG      30.60R
SALIDA         PTCLDY    33  19  57 NW7       30.51R WCI  26
SUNLIGHT       CLEAR     27  23  86 SW3       30.54S
WILKERSON PASS PTCLDY    30   0  27 W9G16     30.49S WCI  22
$$

COZ069>075-271500-
...SAN LUIS VALLEY/SANGRE DE CRISTO MOUNTAINS...

CITY           SKY/WX    TMP DP  RH WIND       PRES   REMARKS
ALAMOSA        MOCLDY     8   4  83 E3        30.51R
LA VETA PASS   PTCLDY    30  18  59 S13G22    30.50R WCI  20
SAGUACHE       PTCLDY    27  19  74 NW20      30.50S WCI  13
$$

COZ035-036-038>040-271500-
...NORTHERN COLORADO FRONT RANGE...

CITY           SKY/WX    TMP DP  RH WIND       PRES   REMARKS
DENVER INTL AP MOCLDY    42  20  41 S13       30.20F
DMNS CITY PARK   N/A     41  20  42 SE5       30.21S
AURORA         MOCLDY    44  17  33 S14       30.23S
FRONT RANGE AP MOCLDY    46  19  34 SW20G25   30.22S
ERIE MUNI ARPT CLOUDY    36  26  66 NE6       30.18F
BOULDER MUN AP CLOUDY    52  14  22 S3        30.20R
CENTENNIAL     CLOUDY    43  16  33 S9        30.24R
BROOMFIELD     MOCLDY    57  10  15 W26G36    30.20F
FORT COLLINS   MOCLDY    19  18  93 CALM      30.20S
LONGMONT       MOCLDY    26  23  88 CALM      30.20F
$$

COZ041-046-047-076>085-087-088-271500-
...PIKES PEAK/PALMER DIVIDE AND SOUTHERN FOOTHILLS...

CITY           SKY/WX    TMP DP  RH WIND       PRES   REMARKS
COLO. SPRINGS  MOCLDY    34  18  52 NE5       30.28R WCI  30
A. F. ACADEMY  MOCLDY    33  18  53 VRB7      30.28S WCI  27
ELLICOTT       NOT AVBL
FALCON         NOT AVBL
FORT CARSON    MOCLDY    36  18  48 N5        30.26R
LIMON          CLOUDY    21  18  88 W5        30.25F WCI  15
MONUMENT HILL  CLOUDY    39  10  30 SW12        N/A
TRINIDAD       PTCLDY    36  20  52 SW13      30.31S
$$

COZ042>045-048>051-090-091-271500-
...NORTHEAST COLORADO...

CITY           SKY/WX    TMP DP  RH WIND       PRES   REMARKS
GREELEY ARPT   MOCLDY    18  10  73 NW7       30.21F WCI   8
AKRON          PTCLDY    34  24  67 SW13      30.19F WCI  25
BURLINGTON     CLEAR     26  19  74 SW13      30.25F WCI  15
WRAY           CLEAR     20  19  93 W8        30.22F WCI  11
STERLING       PTCLDY    27  23  86 SW8       30.19F WCI  18
HOLYOKE        CLEAR     25  21  86 W8        30.19F WCI  16
FORT MORGAN    PTCLDY    19  18  95 W10       30.20F WCI   8
$$

COZ086-089-092>099-271500-
...SOUTHEAST COLORADO...

CITY           SKY/WX    TMP DP  RH WIND       PRES   REMARKS
PUEBLO         CLOUDY    22  18  85 CALM      30.28S
LA JUNTA       MOCLDY    22  19  89 W7        30.29F WCI  13
LAMAR          PTCLDY    20  17  88 W7        30.30S WCI  11
SPRINGFIELD      N/A     25  22  88 W6        30.29F WCI  18
$$


USA.gov is the U.S. government's official web portal to all federal, state and local government web resources and services.